STARLINK-32278, 60356

Orbit data source: Space-Track

STARLINK-32278, 60356 is a payload satellite owned by SpaceX/Seattle (US) in LEO that was launched on Sun, 04 Aug 2024 UTC via an FALCON 9 launch vehicle from the Air Force Western Test Range (AFWTR). Payload-class satellites include a variety of spacecraft equipped with specific instruments for various scientific and technological missions. These include communications satellites like Starlink; space stations such as the ISS; scientific satellites like the Hubble; Earth observation satellites from companies like Planet Labs, Umbra, and HawkEye 360; GPS; miniature CubeSats for education and research; and military/defense satellites.

Loading next visibility...
Identifier
60356, 2024-138B
Orbit
LEO
Last TLE update
12 hours ago
Origin
Manufacturer
SpaceX/Seattle
Mission
Operational Commercial Communications
Bus & Motor
STARLINK V2M, Unknown motor
Mass
730 kg wet, ~700 kg dry
Launch date (UTC)
2024-08-04 (11 months ago)
Launch vehicle
FALCON 9
Launch site
Air Force Western Test Range (AFWTR)
Object type
Payload
Rocket body
Debris
Shape & HBR
Box + 2 Pan, 29 m
Radar Cross Section
33.884 m², Large (>1 m²)

Expand to show TLE details & history

TLE from 12 hours ago
0 STARLINK-32278
1 60356U 24138B   25181.90674131  .00000870  00000-0  41479-4 0  9990
2 60356  53.1604  39.4510 0000820  75.0122 285.0969 15.30208729 52069
Epoch: 2025-06-30T21:45Z
TLE epoch observation values (Epoch: 2025-06-30T21:45:42.449Z)
Latitude
-0.00005°
Longitude
153.81427°
Altitude
475.942 km
Speed
7.629 km/s
True Right ascension
02h 37m 48s
True Declination
0° 00' 00"
Sunlit
Object was in daylight at epoch
Visualization orbit readout
Latitude
-0.60249°
Longitude
-28.01326°
Altitude
476.302 km
Speed
7.629 km/s
Apparent Right ascension
12h 21m 56s
Apparent Declination
-24° 32' 05"
Sunlit
Object is in full shadow
Visualization observer readout
Local Sidereal Time
21:09:32
Azimuth
276.015° WNW
Elevation
-47.089°
Doppler factor
1
Orbital elements
Apogee altitude
476.007 km
Perigee altitude
474.883 km
Semi-major axis
6,853.582 km
Eccentricity
0.00008
Inclination
53.1604°
RAAN
39.451°
Arg. of periapsis
75.0122°
True anomaly
Unknown
Mean anomaly
285.0969°
Eccentric anomaly
Unknown
Mean motion
3.82531 °/min
Orbital period
94.11 mins
BSTAR
0.000041479
Loading maneuver chart data...
Loading SW <> Apogee altitude chart data...
Loading historical data...
Loading historical data...
Loading historical data...
Loading historical data...
Loading historical data...
Loading historical data...
Loading historical data...

STARLINK-32278 Visibility forecast

Observer location: undefined°, undefined°

Span
Click to sort rows by Start time (UTC) header in descending order
Start Az.
Max El. time (UTC)
Max El. Az.
Max El.
End time (UTC)
End Az.
6 mins2025-07-01 16:44:14.225Z203.51° SW2025-07-01 16:47:14.225Z125.447° SE34.651°2025-07-01 16:50:14.225Z63.328° ENE
4 mins2025-07-01 18:23:14.225Z287.421° WNW2025-07-01 18:25:14.225Z335.944° NNW23.933°2025-07-01 18:27:14.225Z20.107° NNE
5 mins2025-07-01 23:20:14.225Z337.849° N2025-07-01 23:22:14.225Z44.37° NE32.491°2025-07-01 23:25:14.225Z103.552° ESE
4 mins2025-07-02 00:58:14.225Z265.744° W2025-07-02 01:00:14.225Z216.635° SW21.696°2025-07-02 01:02:14.225Z179.708° S
|